Weather in Klenovka

Russia / Perm Krai     57°44′39″N   54°19′13″E
temp.,
°C
wind,
m/s
gust,
m/s
humid.,
%
clouds,
%
prec.,
mm/h
press.,
hPa
HPBL,
m
28 february, sun
sun2823:00−14e51094100 0.6 1007452
02:00−16ene499599 0.2 1007349
05:00−18ne599598 0.3 1007374
08:00−18ne5995100 0.2 1008379
11:00−17ne5993100 0.3 1008426
14:00−14ne5890100 0.1 1009514
17:00−14ne5889100 0.1 1010579
20:00−17nne489598 0.0 1012207
1 march, mon
mon123:00−20nne469963 0.1 1014112
02:00−21nne359826 0.0 101680
05:00−22nne359826 0.0 101786
08:00−23nne349939 0.0 101857
11:00−19nne249434 0.0 1019201
14:00−14n118482 0.0 1018359
17:00−12wsw118290 0.0 1018434
20:00−17sw239596 0.0 101621
2 march, tue
tue223:00−19ssw359885 0.0 101586
02:00−18ssw499784 0.0 1013242
05:00−18s6119491 0.0 1010291
08:00−18s61296100 0.2 1006339
11:00−16s71295100 1.0 1004429
14:00−13s71194100 0.9 1002499
17:00−11s61093100 1.6 1001572
20:00−11s51095100 0.6 999492
3 march, wed
wed323:00−10s3895100 1.3 999368
02:00−11sse2596100 0.7 998158
05:00−11sse2296100 1.1 99827
08:00−13w1197100 0.2 99721
11:00−9wnw239399 0.2 998195
14:00−5wnw359196 0.1 998456
17:00−4nw589198 0.4 999741
20:00−7nnw499299 0.1 1000316
4 march, thu
thu423:00−9nw499083 0.1 1002189
02:00−12wnw479629 0.0 1003133
05:00−11wnw489558 0.1 1004209
08:00−15wnw489784 0.0 1005155
11:00−12w489488 0.1 1005273
14:00−7wsw478888 0.0 1004624
17:00−7ssw698994 0.1 1002660
20:00−7ssw81494100 0.6 998806